Location: Newark
(34.9756°N, 138.3828°E)
Time: 19:27:19
(UTC+00:00)

Starlink Launch 2 leader - Visible Passes

Search period start: 05 December 2019 00:00
Search period end: 15 December 2019 00:00
Orbit: 279 x 281 km, 53.0° (Epoch: 13 November)

Date Brightness Start Highest point End Pass type
(mag) Time Alt. Az. Time Alt. Az. Time Alt. Az.
08 Dec 5.2 20:19:35 10° NNE 20:20:09 10° NNE 20:20:42 10° NE visible
09 Dec 4.5 20:21:31 17° NNE 20:22:14 19° NE 20:24:05 10° E visible
10 Dec 3.2 20:23:43 34° N 20:24:14 40° NE 20:26:34 10° ESE visible
11 Dec 2.0 20:26:00 67° W 20:26:09 72° SW 20:28:35 10° SE visible
12 Dec 3.7 20:28:21 25° SW 20:28:21 25° SW 20:30:08 10° S visible
